World > North America > United States > Ohio

Risingsun, Ohio Regional Weather

Lat: 41.27N, Lon: 83.43W
Wx Zone: OHZ006Web Search

If you are on your PC, you can easily pass this page to your phone by scanning the QR Code near the bottom with your camera.

Feedback


°F Click to change Risingsun hourly weather to Imperial units.Click to change Risingsun hourly weather to Metric units. °C
Risingsun Weather Map
UTC Time: 5/18/2021, 23:54
Your Time:

Risingsun, OH Regional Weather

Expires:202105190000;;333614
ASUS41 KCLE 182312
RWRCLE
OHIO REGIONAL WEATHER ROUNDUP
NATIONAL WEATHER SERVICE WILMINGTON, OH
700 PM EDT TUE MAY 18 2021

NOTE: "FAIR" INDICATES FEW OR NO CLOUDS BELOW 12,000 FEET WITH NO
SIGNIFICANT WEATHER AND/OR OBSTRUCTIONS TO VISIBILITY.


OHZ001>008-015>018-024>027-034-035-043-044-190000-
   NORTHWEST OHIO
  
CITY           SKY/WX    TMP DP  RH WIND       PRES   REMARKS
DEFIANCE       FAIR      79  53  40 S7        30.22F                  
FINDLAY        FAIR      80  53  39 SE10      30.22F                  
TOLEDO EXPRESS FAIR      78  49  35 NE14      30.23F                  
TOLEDO EXEC    FAIR      74  49  41 E12       30.25F                  
LIMA           LGT RAIN  78  52  40 S8        30.23F                  
$$
 

SKY/WX - Weather  TMP - Temperature  DP - Dew Point  RH - Relative Humidity
WIND - Wind Direction/Speed PRES - Barometric Pressure VSB - Visibility
WCI - Wind Chill Index E13G22 Wind - East Wind 13 mph/Gusts of 22 mph